Location: Brivio
(45.7333°N, 9.4500°E)
Time: 23:39:49
(UTC+00:00)

N. Korean satellite - Pass Details

Date: 15 December 2019
Orbit: 454 x 507 km, 97.2° (Epoch: 21 January)

Event Time Altitude Azimuth Distance (km) Brightness Sun altitude
Rises 04:26:32 0° 27° (NNE) 2,527 10.4 -25.0°
Reaches altitude 10° 04:29:02 10° 45° (NE) 1,634 9.7 -24.6°
Maximum altitude 04:31:38 19° 93° (E) 1,152 9.3 -24.1°
Drops below altitude 10° 04:34:12 10° 141° (SE) 1,605 9.8 -23.7°
Sets 04:36:38 0° 160° (SSE) 2,466 10.6 -23.3°
